�������l�o���
Date,Time,MP-1(��Sv/h),MP-2(��Sv/h),MP-3(��Sv/h),MP-4(��Sv/h),MP-5(��Sv/h),MP-6(��Sv/h),MP-7(��Sv/h),MP-8(��Sv/h),����,����(m/s),���J
2017/06/02,00:00,0.974,1.533,1.032,1.843,1.251,0.528,0.960,0.891,��쓌,1.1,��
2017/06/02,00:10,0.976,1.533,1.031,1.842,1.249,0.529,0.960,0.890,�쓌,0.6,��
2017/06/02,00:20,0.976,1.535,1.031,1.841,1.253,0.529,0.960,0.891,-,CALM,��
2017/06/02,00:30,0.974,1.534,1.031,1.842,1.252,0.528,0.960,0.890,�k�k��,1.1,��
2017/06/02,00:40,0.974,1.533,1.031,1.841,1.253,0.529,0.959,0.892,�k�k��,0.8,��
2017/06/02,00:50,0.975,1.531,1.031,1.838,1.254,0.529,0.961,0.890,�k�k��,0.9,��
2017/06/02,01:00,0.973,1.533,1.032,1.842,1.252,0.528,0.962,0.891,��,0.6,��
2017/06/02,01:10,0.975,1.534,1.031,1.841,1.251,0.528,0.960,0.891,��,0.9,��
2017/06/02,01:20,0.976,1.533,1.032,1.841,1.253,0.526,0.960,0.891,���k��,0.8,��
2017/06/02,01:30,0.975,1.535,1.032,1.842,1.253,0.529,0.962,0.892,�k,0.6,��
2017/06/02,01:40,0.977,1.533,1.031,1.843,1.254,0.529,0.961,0.891,��쓌,0.6,��
2017/06/02,01:50,0.974,1.533,1.032,1.841,1.252,0.530,0.961,0.891,-,CALM,��
2017/06/02,02:00,0.976,1.531,1.034,1.842,1.255,0.531,0.960,0.889,��,0.9,��
2017/06/02,02:10,0.975,1.534,1.031,1.843,1.253,0.529,0.960,0.891,��쓌,0.8,��
2017/06/02,02:20,0.976,1.532,1.033,1.840,1.251,0.529,0.961,0.891,�쓌,1.2,��
2017/06/02,02:30,0.975,1.534,1.034,1.840,1.254,0.529,0.962,0.889,��쓌,1.2,��
2017/06/02,02:40,0.976,1.530,1.033,1.841,1.253,0.531,0.959,0.892,-,CALM,��
2017/06/02,02:50,0.976,1.533,1.032,1.839,1.253,0.530,0.960,0.891,��,1.4,��
2017/06/02,03:00,0.975,1.534,1.030,1.841,1.253,0.531,0.961,0.891,�쐼,1.4,��
2017/06/02,03:10,0.975,1.534,1.031,1.842,1.251,0.529,0.958,0.891,��쐼,1.2,��
2017/06/02,03:20,0.975,1.533,1.031,1.840,1.254,0.530,0.962,0.892,��,2.0,��
2017/06/02,03:30,0.977,1.532,1.033,1.843,1.253,0.529,0.960,0.889,��,2.6,��
2017/06/02,03:40,0.976,1.533,1.031,1.842,1.253,0.529,0.961,0.890,��,2.9,��
2017/06/02,03:50,0.977,1.534,1.030,1.841,1.254,0.529,0.961,0.892,��쓌,3.3,��
2017/06/02,04:00,0.975,1.534,1.031,1.839,1.253,0.528,0.961,0.891,��,3.3,��
2017/06/02,04:10,0.975,1.532,1.034,1.840,1.253,0.530,0.961,0.890,��,4.2,��
2017/06/02,04:20,0.974,1.535,1.032,1.844,1.254,0.529,0.961,0.890,��,4.1,��
2017/06/02,04:30,0.976,1.531,1.030,1.840,1.255,0.529,0.961,0.892,��,4.6,��
2017/06/02,04:40,0.976,1.533,1.030,1.841,1.250,0.531,0.961,0.892,��,3.3,��
2017/06/02,04:50,0.977,1.534,1.031,1.841,1.253,0.529,0.959,0.894,��,3.1,��
2017/06/02,05:00,0.973,1.534,1.030,1.844,1.252,0.529,0.960,0.892,��,2.6,��
2017/06/02,05:10,0.975,1.530,1.030,1.842,1.254,0.528,0.960,0.891,��,3.3,��
2017/06/02,05:20,0.974,1.532,1.029,1.840,1.254,0.530,0.961,0.892,��,4.3,��
2017/06/02,05:30,0.975,1.532,1.031,1.840,1.254,0.528,0.961,0.890,��,4.6,�L
2017/06/02,05:40,0.975,1.533,1.028,1.840,1.248,0.530,0.959,0.890,��쓌,2.9,�L
2017/06/02,05:50,0.974,1.524,1.029,1.836,1.250,0.529,0.960,0.892,��쓌,2.0,�L
2017/06/02,06:00,0.974,1.527,1.029,1.836,1.250,0.531,0.958,0.892,��쓌,2.6,�L
2017/06/02,06:10,0.974,1.525,1.029,1.833,1.245,0.531,0.956,0.889,�쓌,5.1,�L
2017/06/02,06:20,0.965,1.502,1.018,1.810,1.225,0.527,0.952,0.884,��쐼,1.7,�L
2017/06/02,06:30,0.953,1.485,1.012,1.793,1.210,0.526,0.946,0.879,-,CALM,�L
2017/06/02,06:40,0.942,1.469,1.003,1.773,1.187,0.519,0.935,0.870,���k��,7.3,�L
2017/06/02,06:50,0.926,1.451,0.988,1.757,1.169,0.514,0.928,0.859,��쐼,3.5,�L
2017/06/02,07:00,0.938,1.459,0.994,1.767,1.177,0.520,0.934,0.864,�k,6.2,�L
2017/06/02,07:10,0.953,1.478,1.006,1.783,1.193,0.525,0.940,0.872,�k,3.3,�L
2017/06/02,07:20,0.963,1.488,1.011,1.793,1.198,0.525,0.943,0.877,��,3.6,�L
2017/06/02,07:30,0.966,1.497,1.017,1.800,1.201,0.526,0.944,0.876,���k��,4.2,�L
2017/06/02,07:40,0.966,1.497,1.020,1.803,1.205,0.530,0.945,0.878,�k�k��,2.3,�L
2017/06/02,07:50,0.966,1.499,1.020,1.801,1.201,0.532,0.943,0.877,�k,4.1,�L
2017/06/02,08:00,0.965,1.503,1.023,1.803,1.206,0.531,0.944,0.881,�k,5.1,��
2017/06/02,08:10,0.968,1.506,1.021,1.805,1.208,0.530,0.944,0.879,�k,3.6,��
2017/06/02,08:20,0.968,1.509,1.022,1.807,1.208,0.531,0.946,0.880,�k,5.3,��
2017/06/02,08:30,0.966,1.507,1.022,1.812,1.210,0.530,0.947,0.881,�k,5.0,��
2017/06/02,08:40,0.967,1.512,1.021,1.808,1.209,0.528,0.946,0.883,�k,5.2,��
2017/06/02,08:50,0.967,1.511,1.022,1.812,1.210,0.529,0.947,0.884,�k�k��,4.9,��
2017/06/02,09:00,0.966,1.512,1.022,1.812,1.212,0.529,0.948,0.884,�k�k��,4.9,��
2017/06/02,09:10,0.966,1.510,1.022,1.813,1.217,0.524,0.948,0.883,�k�k��,4.6,��
2017/06/02,09:20,0.970,1.511,1.024,1.815,1.217,0.527,0.950,0.885,�k�k��,4.6,��
2017/06/02,09:30,0.969,1.511,1.023,1.816,1.219,0.524,0.950,0.887,�k,5.0,��
2017/06/02,09:40,0.971,1.512,1.022,1.818,1.219,0.524,0.953,0.884,�k�k��,3.9,��
2017/06/02,09:50,0.971,1.513,1.021,1.821,1.216,0.524,0.953,0.881,�k,4.6,��
2017/06/02,10:00,0.971,1.517,1.023,1.825,1.220,0.528,0.953,0.883,�k,3.6,��
2017/06/02,10:10,0.969,1.513,1.023,1.827,1.222,0.526,0.952,0.884,�k,5.1,��
2017/06/02,10:20,0.972,1.518,1.024,1.825,1.222,0.525,0.954,0.885,�k,5.5,��
2017/06/02,10:30,0.972,1.520,1.024,1.828,1.225,0.524,0.955,0.885,�k�k��,7.5,��
2017/06/02,10:40,0.975,1.520,1.024,1.827,1.226,0.524,0.955,0.886,�k,6.8,��
2017/06/02,10:50,0.973,1.522,1.024,1.830,1.229,0.526,0.957,0.885,�k,6.7,��
2017/06/02,11:00,0.975,1.522,1.025,1.829,1.229,0.525,0.956,0.886,�k�k��,7.9,��
2017/06/02,11:10,0.972,1.524,1.026,1.826,1.232,0.525,0.957,0.887,�k�k��,7.6,��
2017/06/02,11:20,0.972,1.525,1.026,1.831,1.232,0.524,0.957,0.887,�k��,6.7,�L
2017/06/02,11:30,0.971,1.521,1.024,1.827,1.230,0.524,0.954,0.887,�k,3.7,�L
2017/06/02,11:40,0.961,1.519,1.024,1.830,1.231,0.525,0.956,0.885,�k��,4.7,�L
2017/06/02,11:50,0.965,1.520,1.025,1.829,1.233,0.525,0.957,0.887,�k�k��,4.6,��
2017/06/02,12:00,0.967,1.521,1.024,1.830,1.234,0.525,0.957,0.887,�k�k��,4.9,��
2017/06/02,12:10,0.965,1.521,1.026,1.830,1.236,0.526,0.958,0.886,�k�k��,4.2,��
2017/06/02,12:20,0.968,1.522,1.029,1.833,1.235,0.526,0.959,0.887,�k�k��,8.4,��
2017/06/02,12:30,0.967,1.522,1.027,1.834,1.233,0.527,0.960,0.887,�k�k��,10.3,��
2017/06/02,12:40,0.969,1.523,1.027,1.838,1.237,0.526,0.959,0.887,�k�k��,9.3,��
2017/06/02,12:50,0.965,1.523,1.029,1.838,1.237,0.526,0.958,0.889,�k��,8.0,��
2017/06/02,13:00,0.970,1.524,1.028,1.841,1.237,0.526,0.962,0.889,�k��,4.9,�L
2017/06/02,13:10,0.968,1.527,1.029,1.843,1.239,0.525,0.962,0.889,�k��,6.5,�L
2017/06/02,13:20,0.968,1.524,1.031,1.844,1.241,0.527,0.962,0.889,�k��,4.5,�L
2017/06/02,13:30,0.969,1.526,1.033,1.845,1.242,0.528,0.962,0.892,�k��,2.0,�L
2017/06/02,13:40,0.971,1.527,1.033,1.846,1.243,0.531,0.963,0.890,�k��,1.5,�L
2017/06/02,13:50,0.970,1.529,1.036,1.846,1.242,0.532,0.962,0.889,�k,2.0,�L
2017/06/02,14:00,0.971,1.528,1.037,1.846,1.245,0.533,0.961,0.890,�k,1.9,�L
2017/06/02,14:10,0.973,1.529,1.036,1.845,1.245,0.531,0.961,0.891,�k��,1.4,��
2017/06/02,14:20,0.972,1.531,1.035,1.844,1.243,0.533,0.961,0.893,�k�k��,1.9,��
2017/06/02,14:30,0.974,1.532,1.035,1.844,1.246,0.531,0.962,0.891,�k,1.4,��
2017/06/02,14:40,0.973,1.534,1.034,1.849,1.246,0.531,0.960,0.891,�k�k��,1.2,��
2017/06/02,14:50,0.974,1.531,1.036,1.846,1.246,0.529,0.961,0.893,�k��,2.3,�L
2017/06/02,15:00,0.973,1.534,1.035,1.848,1.246,0.530,0.962,0.894,�k��,3.5,�L
2017/06/02,15:10,0.973,1.532,1.037,1.846,1.245,0.529,0.963,0.893,�k��,4.9,��
2017/06/02,15:20,0.972,1.532,1.034,1.845,1.247,0.530,0.963,0.894,�k�k��,4.7,��
2017/06/02,15:30,0.974,1.532,1.035,1.848,1.249,0.531,0.962,0.893,�k,3.8,��
2017/06/02,15:40,0.972,1.533,1.034,1.847,1.246,0.530,0.965,0.894,�k�k��,3.0,��
2017/06/02,15:50,0.974,1.534,1.037,1.847,1.247,0.528,0.963,0.895,�k�k��,4.0,��
2017/06/02,16:00,0.974,1.535,1.035,1.848,1.245,0.530,0.961,0.896,���k��,8.5,��
2017/06/02,16:10,0.973,1.535,1.036,1.849,1.243,0.529,0.964,0.894,���k��,12.2,��
2017/06/02,16:20,0.973,1.534,1.036,1.851,1.247,0.528,0.966,0.894,���k��,8.7,��
2017/06/02,16:30,0.975,1.535,1.034,1.851,1.246,0.529,0.964,0.894,�k��,6.8,��
2017/06/02,16:40,0.975,1.535,1.034,1.849,1.248,0.530,0.963,0.892,���k��,8.1,��
2017/06/02,16:50,0.976,1.535,1.035,1.850,1.247,0.529,0.963,0.893,���k��,9.5,��
2017/06/02,17:00,0.973,1.534,1.037,1.851,1.249,0.530,0.965,0.893,�k��,8.4,��
2017/06/02,17:10,0.976,1.533,1.037,1.849,1.250,0.529,0.964,0.891,���k��,8.5,��
2017/06/02,17:20,0.975,1.539,1.036,1.850,1.247,0.529,0.966,0.893,���k��,8.0,��
2017/06/02,17:30,0.975,1.539,1.036,1.850,1.250,0.532,0.964,0.892,���k��,6.7,��
2017/06/02,17:40,0.975,1.540,1.038,1.854,1.250,0.530,0.966,0.894,���k��,3.9,��
2017/06/02,17:50,0.973,1.541,1.036,1.852,1.250,0.531,0.964,0.894,���k��,5.5,��
2017/06/02,18:00,0.976,1.542,1.037,1.852,1.249,0.531,0.966,0.893,���k��,6.9,��
2017/06/02,18:10,0.974,1.541,1.033,1.856,1.251,0.530,0.967,0.894,���k��,9.2,��
2017/06/02,18:20,0.973,1.543,1.037,1.855,1.251,0.529,0.964,0.895,��,6.5,��
2017/06/02,18:30,0.976,1.542,1.036,1.855,1.255,0.530,0.965,0.894,���k��,6.7,��
2017/06/02,18:40,0.976,1.543,1.036,1.855,1.257,0.530,0.966,0.895,���k��,7.9,��
2017/06/02,18:50,0.975,1.540,1.036,1.854,1.254,0.530,0.966,0.896,���k��,6.2,��
2017/06/02,19:00,0.977,1.543,1.036,1.856,1.256,0.532,0.965,0.897,�k��,7.0,��
2017/06/02,19:10,0.976,1.543,1.035,1.857,1.256,0.532,0.967,0.898,�k��,5.3,��
2017/06/02,19:20,0.976,1.542,1.036,1.860,1.254,0.532,0.965,0.895,���k��,4.7,��
2017/06/02,19:30,0.977,1.544,1.040,1.860,1.255,0.531,0.963,0.897,���k��,6.5,��
2017/06/02,19:40,0.976,1.543,1.041,1.861,1.253,0.532,0.966,0.895,���k��,6.1,��
2017/06/02,19:50,0.977,1.540,1.041,1.860,1.257,0.531,0.964,0.896,���k��,7.5,��
2017/06/02,20:00,0.977,1.545,1.039,1.860,1.252,0.532,0.965,0.895,���k��,6.3,��
2017/06/02,20:10,0.977,1.542,1.039,1.859,1.255,0.531,0.968,0.897,���k��,4.9,��
2017/06/02,20:20,0.977,1.542,1.039,1.861,1.257,0.531,0.966,0.896,���k��,5.0,��
2017/06/02,20:30,0.978,1.541,1.039,1.862,1.254,0.533,0.966,0.896,���k��,4.0,��
2017/06/02,20:40,0.976,1.541,1.038,1.863,1.254,0.530,0.966,0.897,���k��,4.6,��
2017/06/02,20:50,0.978,1.543,1.039,1.863,1.255,0.532,0.968,0.895,���k��,4.0,��
2017/06/02,21:00,0.977,1.543,1.038,1.860,1.256,0.531,0.967,0.897,���k��,2.2,��
2017/06/02,21:10,0.976,1.540,1.037,1.859,1.256,0.531,0.965,0.897,���k��,1.9,��
2017/06/02,21:20,0.973,1.543,1.037,1.861,1.256,0.532,0.969,0.896,���k��,4.1,��
2017/06/02,21:30,0.975,1.540,1.039,1.859,1.255,0.532,0.967,0.896,�k��,4.2,��
2017/06/02,21:40,0.973,1.543,1.039,1.860,1.256,0.531,0.966,0.896,�k��,1.9,��
2017/06/02,21:50,0.978,1.542,1.036,1.861,1.257,0.531,0.967,0.895,���k��,2.6,��
2017/06/02,22:00,0.976,1.542,1.037,1.863,1.258,0.531,0.968,0.895,���k��,5.6,��
2017/06/02,22:10,0.975,1.542,1.039,1.862,1.257,0.529,0.969,0.897,���k��,6.5,��
2017/06/02,22:20,0.974,1.541,1.036,1.862,1.257,0.530,0.969,0.898,���k��,8.7,��
2017/06/02,22:30,0.973,1.542,1.037,1.863,1.256,0.530,0.966,0.897,���k��,6.4,��
2017/06/02,22:40,0.974,1.542,1.037,1.861,1.257,0.532,0.967,0.896,���k��,4.4,��
2017/06/02,22:50,0.975,1.540,1.038,1.861,1.258,0.531,0.970,0.897,���k��,3.9,��
2017/06/02,23:00,0.974,1.541,1.039,1.862,1.256,0.531,0.967,0.896,���k��,5.8,��
2017/06/02,23:10,0.976,1.540,1.039,1.864,1.257,0.530,0.968,0.898,���k��,8.7,��
2017/06/02,23:20,0.975,1.544,1.040,1.866,1.257,0.530,0.967,0.898,���k��,6.6,��
2017/06/02,23:30,0.974,1.543,1.039,1.863,1.257,0.530,0.967,0.898,���k��,7.4,��
2017/06/02,23:40,0.977,1.543,1.040,1.860,1.258,0.531,0.967,0.896,���k��,5.4,��
2017/06/02,23:50,0.975,1.542,1.039,1.863,1.260,0.530,0.966,0.894,���k��,4.2,��
